PPNLR SBFI-SBCF

Flight info

Callsign PPNLR
Flight time N/A
Altitude 39000
Route UPORU UZ65 ANSOK DCT VULAD
Aircraft E35L/M-SABDFGRW/S

Departure

Time 2026-04-25 20:18
Airport Cataratas International Airport (SBFI)

Arrival

Time N/A
Airport Tancredo Neves International Airport (SBCF)
Time Latitude Longitude Altitude Speed Heading
2026-04-25 20:09 -25.59879 -54.48723 783 ft 0 kts 219°
2026-04-25 20:10 -25.59878 -54.48722 783 ft 0 kts 219°
2026-04-25 20:14 -25.59843 -54.48728 781 ft 13 kts 25°
2026-04-25 20:14 -25.59767 -54.48741 779 ft 12 kts 314°
2026-04-25 20:14 -25.59700 -54.48828 776 ft 17 kts 311°
2026-04-25 20:14 -25.59607 -54.48946 772 ft 23 kts 310°
2026-04-25 20:15 -25.59498 -54.49075 767 ft 18 kts 341°
2026-04-25 20:15 -25.59451 -54.49070 766 ft 0 kts 33°
2026-04-25 20:16 -25.59442 -54.49062 766 ft 3 kts 39°
2026-04-25 20:16 -25.59382 -54.49030 766 ft 13 kts 342°
2026-04-25 20:16 -25.59293 -54.49117 761 ft 22 kts 310°
2026-04-25 20:17 -25.59172 -54.49265 753 ft 28 kts 312°
2026-04-25 20:17 -25.59033 -54.49440 743 ft 32 kts 317°
2026-04-25 20:17 -25.58935 -54.49537 737 ft 11 kts 237°
2026-04-25 20:17 -25.58990 -54.49496 740 ft 14 kts 128°
2026-04-25 20:18 -25.59241 -54.49173 758 ft 101 kts 130°
2026-04-25 20:18 -25.59868 -54.48368 787 ft 173 kts 130°
2026-04-25 20:18 -25.60726 -54.47250 1269 ft 203 kts 130°
2026-04-25 20:18 -25.61639 -54.46011 2303 ft 215 kts 128°
2026-04-25 20:19 -25.62561 -54.44649 3274 ft 230 kts 125°
2026-04-25 20:19 -25.63467 -54.43209 4354 ft 235 kts 124°
2026-04-25 20:19 -25.64399 -54.41715 5379 ft 241 kts 123°
2026-04-25 20:19 -25.65105 -54.40054 6274 ft 250 kts 103°
2026-04-25 20:20 -25.65129 -54.38049 6715 ft 278 kts 74°
2026-04-25 20:20 -25.64232 -54.36209 7777 ft 275 kts 45°
2026-04-25 20:20 -25.62821 -54.34907 9039 ft 262 kts 33°
2026-04-25 20:20 -25.61389 -54.33583 9544 ft 289 kts 50°
2026-04-25 20:21 -25.60381 -54.31550 10040 ft 311 kts 59°
2026-04-25 20:21 -25.59132 -54.29624 10951 ft 313 kts 49°
2026-04-25 20:21 -25.57718 -54.27750 11752 ft 321 kts 45°
2026-04-25 20:21 -25.56177 -54.25930 12484 ft 331 kts 44°
2026-04-25 20:22 -25.54568 -54.24030 13229 ft 341 kts 44°
2026-04-25 20:22 -25.54042 -54.23404 13468 ft 344 kts 44°
2026-04-25 20:22 -25.51272 -54.20089 14712 ft 359 kts 44°
2026-04-25 20:22 -25.49594 -54.18064 15510 ft 364 kts 44°
2026-04-25 20:23 -25.47868 -54.15978 16312 ft 368 kts 44°
2026-04-25 20:23 -25.46136 -54.13884 17063 ft 373 kts 44°
2026-04-25 20:23 -25.44372 -54.11751 17792 ft 378 kts 44°
2026-04-25 20:23 -25.42593 -54.09598 18492 ft 383 kts 44°
2026-04-25 20:24 -25.40787 -54.07405 19157 ft 388 kts 44°
2026-04-25 20:24 -25.38966 -54.05188 19805 ft 393 kts 44°
2026-04-25 20:24 -25.37114 -54.02927 20443 ft 398 kts 44°
2026-04-25 20:24 -25.35247 -54.00635 21033 ft 404 kts 44°
2026-04-25 20:25 -25.33350 -53.98289 21581 ft 410 kts 44°
2026-04-25 20:25 -25.31445 -53.95912 22114 ft 415 kts 44°
2026-04-25 20:25 -25.29544 -53.93518 22628 ft 421 kts 44°
2026-04-25 20:25 -25.27592 -53.91040 23138 ft 426 kts 44°
2026-04-25 20:26 -25.25661 -53.88575 23645 ft 431 kts 44°
2026-04-25 20:26 -25.23681 -53.86035 24145 ft 436 kts 44°
2026-04-25 20:26 -25.21702 -53.83485 24626 ft 441 kts 44°
2026-04-25 20:26 -25.19598 -53.81015 25155 ft 441 kts 39°
2026-04-25 20:27 -25.17427 -53.78615 25783 ft 442 kts 39°
2026-04-25 20:27 -25.15283 -53.76252 26471 ft 440 kts 39°
2026-04-25 20:27 -25.13129 -53.73832 27161 ft 440 kts 42°
2026-04-25 20:27 -25.11246 -53.71158 27861 ft 444 kts 50°
2026-04-25 20:28 -25.09464 -53.68412 28591 ft 443 kts 49°
2026-04-25 20:28 -25.07664 -53.65667 29345 ft 441 kts 48°
2026-04-25 20:28 -25.05867 -53.62935 30112 ft 439 kts 48°
2026-04-25 20:28 -25.04072 -53.60208 30890 ft 437 kts 48°
2026-04-25 20:29 -25.02291 -53.57505 31665 ft 435 kts 48°
2026-04-25 20:29 -25.00527 -53.54829 32437 ft 433 kts 48°
2026-04-25 20:29 -24.98748 -53.52133 33217 ft 431 kts 48°
2026-04-25 20:29 -24.96976 -53.49448 33973 ft 430 kts 49°
2026-04-25 20:30 -24.95202 -53.46763 34707 ft 429 kts 49°
2026-04-25 20:30 -24.93447 -53.44106 35423 ft 428 kts 49°
2026-04-25 20:30 -24.91718 -53.41490 36102 ft 427 kts 49°
2026-04-25 20:30 -24.89972 -53.38851 36736 ft 427 kts 49°
2026-04-25 20:31 -24.88198 -53.36170 37359 ft 428 kts 49°
2026-04-25 20:31 -24.86430 -53.33501 37969 ft 427 kts 49°
2026-04-25 20:31 -24.84722 -53.30922 38542 ft 427 kts 49°
2026-04-25 20:31 -24.82969 -53.28278 38955 ft 429 kts 49°
2026-04-25 20:32 -24.81169 -53.25567 39316 ft 442 kts 49°
2026-04-25 20:32 -24.79315 -53.22775 39132 ft 459 kts 49°
2026-04-25 20:32 -24.77396 -53.19885 39151 ft 473 kts 49°
2026-04-25 20:32 -24.75427 -53.16921 38960 ft 485 kts 49°
2026-04-25 20:33 -24.71395 -53.10857 38916 ft 495 kts 49°
2026-04-25 20:33 -24.67973 -53.05717 38937 ft 503 kts 50°
2026-04-25 20:34 -24.63149 -52.98440 38936 ft 505 kts 50°
2026-04-25 20:34 -24.59003 -52.92195 38941 ft 504 kts 50°
2026-04-25 20:35 -24.54884 -52.85999 38948 ft 503 kts 50°
2026-04-25 20:35 -24.50768 -52.79816 38954 ft 502 kts 50°
2026-04-25 20:36 -24.46656 -52.73646 38963 ft 500 kts 50°
2026-04-25 20:36 -24.42499 -52.67461 38969 ft 499 kts 50°
2026-04-25 20:37 -24.38363 -52.61327 38974 ft 499 kts 50°
2026-04-25 20:37 -24.34253 -52.55240 38978 ft 499 kts 50°
2026-04-25 20:38 -24.30132 -52.49144 38981 ft 498 kts 50°
2026-04-25 20:38 -24.26698 -52.44070 38981 ft 497 kts 50°
2026-04-25 20:39 -24.21904 -52.36985 39001 ft 496 kts 50°
2026-04-25 20:39 -24.18503 -52.31947 39001 ft 495 kts 50°
2026-04-25 20:40 -24.13719 -52.24873 38990 ft 493 kts 50°
2026-04-25 20:40 -24.09646 -52.18856 38974 ft 492 kts 50°
2026-04-25 20:41 -24.05563 -52.12833 38961 ft 491 kts 50°
2026-04-25 20:41 -24.01393 -52.06916 38950 ft 489 kts 49°
2026-04-25 20:42 -23.97228 -52.01041 38941 ft 488 kts 49°
2026-04-25 20:42 -23.93057 -51.95164 38940 ft 487 kts 49°
2026-04-25 20:43 -23.88905 -51.89322 38943 ft 486 kts 49°
2026-04-25 20:43 -23.84753 -51.83485 38950 ft 485 kts 49°
2026-04-25 20:44 -23.80627 -51.77693 38960 ft 485 kts 49°
2026-04-25 20:44 -23.76479 -51.71875 38970 ft 484 kts 49°
2026-04-25 20:45 -23.72352 -51.66053 38975 ft 484 kts 49°
2026-04-25 20:45 -23.68237 -51.60215 38981 ft 488 kts 49°
2026-04-25 20:46 -23.64087 -51.54335 38987 ft 492 kts 49°
2026-04-25 20:46 -23.59888 -51.48391 38994 ft 496 kts 49°
2026-04-25 20:47 -23.55680 -51.42443 39001 ft 498 kts 49°
2026-04-25 20:47 -23.51437 -51.36428 39005 ft 498 kts 50°
2026-04-25 20:48 -23.47270 -51.30415 38995 ft 495 kts 50°
2026-04-25 20:48 -23.43123 -51.24445 38992 ft 492 kts 50°
2026-04-25 20:49 -23.38964 -51.18464 38988 ft 489 kts 50°
2026-04-25 20:49 -23.34870 -51.12577 38983 ft 487 kts 51°
2026-04-25 20:50 -23.31517 -51.06171 38979 ft 488 kts 60°
2026-04-25 20:50 -23.28412 -50.99625 38967 ft 486 kts 60°
2026-04-25 20:51 -23.26171 -50.94908 38941 ft 486 kts 58°
2026-04-25 20:51 -23.23033 -50.88342 38944 ft 490 kts 58°
2026-04-25 20:52 -23.20421 -50.82875 38940 ft 495 kts 58°
2026-04-25 20:52 -23.16686 -50.75067 38947 ft 499 kts 59°
2026-04-25 20:53 -23.13845 -50.69135 38960 ft 497 kts 60°
2026-04-25 20:53 -23.11184 -50.63583 38963 ft 494 kts 60°
2026-04-25 20:54 -23.07485 -50.55880 38960 ft 490 kts 60°
2026-04-25 20:54 -23.04336 -50.49332 38960 ft 487 kts 60°
2026-04-25 20:55 -23.01222 -50.42859 38962 ft 484 kts 60°
2026-04-25 20:55 -22.98112 -50.36399 38964 ft 482 kts 60°
2026-04-25 20:56 -22.94997 -50.29938 38958 ft 484 kts 59°
2026-04-25 20:56 -22.91871 -50.23463 38961 ft 486 kts 59°
2026-04-25 20:57 -22.88715 -50.16931 38964 ft 487 kts 60°
2026-04-25 20:57 -22.85566 -50.10426 38966 ft 489 kts 60°
2026-04-25 20:58 -22.82404 -50.03900 38973 ft 490 kts 60°
2026-04-25 20:58 -22.79212 -49.97323 38977 ft 492 kts 59°
2026-04-25 20:59 -22.76017 -49.90748 38976 ft 493 kts 60°
2026-04-25 20:59 -22.72832 -49.84201 38982 ft 492 kts 59°
2026-04-25 21:00 -22.70714 -49.79863 38982 ft 490 kts 60°
2026-04-25 21:01 -22.64893 -49.67968 38984 ft 484 kts 60°
2026-04-25 21:01 -22.61758 -49.61573 38996 ft 481 kts 60°
2026-04-25 21:02 -22.58624 -49.55188 38997 ft 478 kts 59°
2026-04-25 21:02 -22.55507 -49.48848 39005 ft 476 kts 59°
2026-04-25 21:03 -22.52410 -49.42554 39022 ft 474 kts 60°
2026-04-25 21:03 -22.49336 -49.36314 39022 ft 472 kts 60°
2026-04-25 21:04 -22.46232 -49.30016 39018 ft 471 kts 59°
2026-04-25 21:04 -22.43140 -49.23748 39015 ft 473 kts 59°
2026-04-25 21:05 -22.39939 -49.17500 39027 ft 472 kts 53°
2026-04-25 21:05 -22.35617 -49.12261 39035 ft 467 kts 38°
2026-04-25 21:06 -22.30825 -49.07459 39027 ft 469 kts 40°
2026-04-25 21:06 -22.26033 -49.02608 39022 ft 470 kts 40°
2026-04-25 21:07 -22.21263 -48.97781 39006 ft 472 kts 40°
2026-04-25 21:07 -22.16434 -48.92900 38997 ft 473 kts 40°
2026-04-25 21:08 -22.11626 -48.88044 38986 ft 474 kts 40°
2026-04-25 21:08 -22.06786 -48.83161 38992 ft 475 kts 40°
2026-04-25 21:09 -21.99513 -48.75832 38991 ft 476 kts 40°
2026-04-25 21:09 -21.94660 -48.70948 38995 ft 477 kts 40°
2026-04-25 21:10 -21.89781 -48.66042 39001 ft 477 kts 40°
2026-04-25 21:10 -21.84922 -48.61162 39002 ft 477 kts 40°
2026-04-25 21:11 -21.80066 -48.56289 39007 ft 475 kts 40°
2026-04-25 21:11 -21.75244 -48.51454 39018 ft 473 kts 40°
2026-04-25 21:12 -21.70432 -48.46634 39022 ft 471 kts 40°
2026-04-25 21:12 -21.66430 -48.42630 39025 ft 470 kts 40°
2026-04-25 21:13 -21.60808 -48.37009 39021 ft 468 kts 40°
2026-04-25 21:13 -21.56013 -48.32220 39017 ft 467 kts 40°
2026-04-25 21:14 -21.51250 -48.27468 39023 ft 465 kts 40°
2026-04-25 21:14 -21.46500 -48.22733 39022 ft 464 kts 40°
2026-04-25 21:15 -21.41754 -48.18006 39019 ft 463 kts 40°
2026-04-25 21:15 -21.37009 -48.13285 39022 ft 467 kts 40°
2026-04-25 21:16 -21.32199 -48.08505 39016 ft 470 kts 40°
2026-04-25 21:16 -21.27386 -48.03724 39017 ft 473 kts 40°
2026-04-25 21:17 -21.22559 -47.98935 39018 ft 475 kts 40°
2026-04-25 21:17 -21.17692 -47.94111 39017 ft 476 kts 40°
2026-04-25 21:18 -21.12839 -47.89305 39031 ft 474 kts 40°
2026-04-25 21:18 -21.07985 -47.84502 39032 ft 473 kts 40°
2026-04-25 21:19 -21.03147 -47.79720 39032 ft 473 kts 40°
2026-04-25 21:19 -20.98313 -47.74946 39033 ft 472 kts 40°
2026-04-25 21:20 -20.94312 -47.70998 39035 ft 472 kts 40°
2026-04-25 21:20 -20.88631 -47.65397 39042 ft 471 kts 40°
2026-04-25 21:21 -20.83794 -47.60634 39049 ft 470 kts 40°
2026-04-25 21:21 -20.78990 -47.55906 39057 ft 469 kts 41°
2026-04-25 21:22 -20.74188 -47.51186 39061 ft 469 kts 41°
2026-04-25 21:22 -20.69344 -47.46428 39078 ft 468 kts 41°
2026-04-25 21:23 -20.64564 -47.41738 39085 ft 467 kts 41°
2026-04-25 21:23 -20.59767 -47.37035 39096 ft 466 kts 41°
2026-04-25 21:24 -20.54969 -47.32335 39100 ft 466 kts 40°
2026-04-25 21:24 -20.50209 -47.27676 39105 ft 465 kts 40°
2026-04-25 21:25 -20.45434 -47.23007 39100 ft 464 kts 40°
2026-04-25 21:25 -20.40659 -47.18342 39096 ft 464 kts 40°
2026-04-25 21:26 -20.35886 -47.13684 39091 ft 463 kts 40°
2026-04-25 21:26 -20.31085 -47.09002 39089 ft 463 kts 40°
2026-04-25 21:27 -20.26329 -47.04368 39084 ft 462 kts 41°
2026-04-25 21:27 -20.21572 -46.99736 39091 ft 461 kts 41°
2026-04-25 21:28 -20.16793 -46.95089 39105 ft 460 kts 41°
2026-04-25 21:28 -20.12091 -46.90519 39122 ft 460 kts 41°
2026-04-25 21:29 -20.07362 -46.85927 39134 ft 459 kts 41°
2026-04-25 21:29 -20.02928 -46.81013 39141 ft 460 kts 46°
2026-04-25 21:30 -19.99280 -46.75455 38788 ft 469 kts 63°
2026-04-25 21:30 -19.98029 -46.72255 38182 ft 473 kts 71°
2026-04-25 21:30 -19.97444 -46.70013 37772 ft 466 kts 77°
2026-04-25 21:31 -19.96934 -46.65516 36974 ft 460 kts 89°
2026-04-25 21:31 -19.97012 -46.62156 36383 ft 456 kts 90°
2026-04-25 21:31 -19.96759 -46.58792 35790 ft 452 kts 81°
2026-04-25 21:31 -19.96058 -46.55552 35214 ft 452 kts 75°
2026-04-25 21:32 -19.95322 -46.52285 34626 ft 454 kts 77°
2026-04-25 21:32 -19.94618 -46.49019 34043 ft 454 kts 77°
2026-04-25 21:32 -19.93927 -46.45773 33474 ft 460 kts 77°
2026-04-25 21:32 -19.93212 -46.42403 32897 ft 468 kts 77°
2026-04-25 21:33 -19.92495 -46.39023 32382 ft 474 kts 77°
2026-04-25 21:33 -19.91768 -46.35600 31886 ft 480 kts 77°
2026-04-25 21:33 -19.91025 -46.32107 31380 ft 485 kts 77°
2026-04-25 21:33 -19.90279 -46.28601 30876 ft 489 kts 77°
2026-04-25 21:34 -19.89515 -46.25016 30362 ft 491 kts 77°
2026-04-25 21:34 -19.88754 -46.21448 29853 ft 492 kts 77°
2026-04-25 21:34 -19.88001 -46.17921 29351 ft 493 kts 77°
2026-04-25 21:34 -19.87250 -46.14405 28854 ft 494 kts 77°
2026-04-25 21:35 -19.86484 -46.10825 28338 ft 495 kts 77°
2026-04-25 21:35 -19.85720 -46.07257 27822 ft 495 kts 77°
2026-04-25 21:35 -19.84965 -46.03734 27314 ft 495 kts 77°
2026-04-25 21:35 -19.84196 -46.00154 26799 ft 494 kts 77°
2026-04-25 21:36 -19.83427 -45.96572 26284 ft 494 kts 77°
2026-04-25 21:36 -19.82657 -45.92993 25771 ft 493 kts 77°
2026-04-25 21:36 -19.81899 -45.89469 25263 ft 488 kts 77°
2026-04-25 21:36 -19.81147 -45.85978 24756 ft 483 kts 77°
2026-04-25 21:37 -19.80409 -45.82554 24254 ft 479 kts 77°
2026-04-25 21:37 -19.79905 -45.80221 23911 ft 475 kts 77°
2026-04-25 21:37 -19.78933 -45.75715 23248 ft 470 kts 77°
2026-04-25 21:37 -19.78208 -45.72367 22757 ft 466 kts 77°
2026-04-25 21:38 -19.77482 -45.69011 22264 ft 462 kts 78°
2026-04-25 21:38 -19.76768 -45.65713 21805 ft 458 kts 77°
2026-04-25 21:38 -19.76052 -45.62413 21346 ft 455 kts 77°
2026-04-25 21:38 -19.75339 -45.59129 20885 ft 451 kts 77°
2026-04-25 21:39 -19.74640 -45.55911 20430 ft 448 kts 77°
2026-04-25 21:39 -19.73944 -45.52713 20017 ft 444 kts 77°
2026-04-25 21:39 -19.73257 -45.49558 19675 ft 438 kts 77°
2026-04-25 21:39 -19.72574 -45.46420 19332 ft 433 kts 77°
2026-04-25 21:40 -19.71903 -45.43345 18987 ft 429 kts 77°
2026-04-25 21:40 -19.71226 -45.40243 18639 ft 425 kts 77°
2026-04-25 21:40 -19.70564 -45.37214 18295 ft 421 kts 77°
2026-04-25 21:40 -19.69906 -45.34202 17950 ft 418 kts 77°
2026-04-25 21:41 -19.69248 -45.31196 17598 ft 415 kts 77°
2026-04-25 21:41 -19.68604 -45.28254 17252 ft 412 kts 77°
2026-04-25 21:41 -19.67954 -45.25293 16901 ft 410 kts 77°
2026-04-25 21:41 -19.67310 -45.22357 16549 ft 407 kts 77°
2026-04-25 21:42 -19.66675 -45.19463 16315 ft 401 kts 77°
2026-04-25 21:42 -19.66043 -45.16587 16076 ft 396 kts 77°
2026-04-25 21:42 -19.65416 -45.13737 15839 ft 392 kts 77°
2026-04-25 21:42 -19.64803 -45.10951 15606 ft 388 kts 77°
2026-04-25 21:43 -19.64196 -45.08196 15370 ft 384 kts 77°
2026-04-25 21:43 -19.63588 -45.05436 15135 ft 381 kts 77°
2026-04-25 21:43 -19.62984 -45.02697 14899 ft 378 kts 77°
2026-04-25 21:43 -19.62392 -45.00016 14667 ft 376 kts 77°
2026-04-25 21:44 -19.61798 -44.97324 14434 ft 373 kts 77°
2026-04-25 21:44 -19.61206 -44.94651 14200 ft 371 kts 77°
2026-04-25 21:44 -19.60028 -44.89325 13733 ft 367 kts 77°
2026-04-25 21:45 -19.59453 -44.86730 13503 ft 365 kts 77°
2026-04-25 21:45 -19.59064 -44.84976 13348 ft 364 kts 77°
2026-04-25 21:45 -19.58291 -44.81492 13036 ft 362 kts 78°
2026-04-25 21:45 -19.57717 -44.78905 12809 ft 360 kts 77°
2026-04-25 21:46 -19.57146 -44.76336 12581 ft 359 kts 77°
2026-04-25 21:46 -19.56571 -44.73750 12352 ft 357 kts 77°
2026-04-25 21:46 -19.56002 -44.71195 12147 ft 355 kts 77°
2026-04-25 21:46 -19.55444 -44.68689 12022 ft 352 kts 77°
2026-04-25 21:47 -19.54876 -44.66141 11584 ft 357 kts 77°
2026-04-25 21:47 -19.54303 -44.63570 11349 ft 356 kts 77°
2026-04-25 21:47 -19.53738 -44.61035 11115 ft 354 kts 77°
2026-04-25 21:47 -19.53182 -44.58547 10875 ft 341 kts 77°
2026-04-25 21:48 -19.52644 -44.56141 10629 ft 325 kts 77°
2026-04-25 21:48 -19.52129 -44.53834 10380 ft 312 kts 77°
2026-04-25 21:48 -19.51638 -44.51638 10135 ft 300 kts 77°
2026-04-25 21:48 -19.51167 -44.49535 9894 ft 291 kts 77°
2026-04-25 21:49 -19.50705 -44.47474 9654 ft 283 kts 77°
2026-04-25 21:49 -19.50257 -44.45469 9414 ft 276 kts 77°
2026-04-25 21:49 -19.49817 -44.43505 9175 ft 272 kts 77°
2026-04-25 21:49 -19.49379 -44.41552 8960 ft 271 kts 77°
2026-04-25 21:50 -19.48948 -44.39635 8787 ft 269 kts 76°
2026-04-25 21:50 -19.48514 -44.37703 8665 ft 266 kts 77°
2026-04-25 21:50 -19.48089 -44.35813 8539 ft 263 kts 77°
2026-04-25 21:50 -19.47805 -44.34548 8452 ft 262 kts 76°
2026-04-25 21:51 -19.47246 -44.32064 8259 ft 256 kts 76°
2026-04-25 21:51 -19.46843 -44.30271 8057 ft 250 kts 76°
2026-04-25 21:51 -19.46442 -44.28491 7852 ft 245 kts 76°
2026-04-25 21:51 -19.46054 -44.26769 7651 ft 241 kts 76°
2026-04-25 21:52 -19.45669 -44.25061 7436 ft 238 kts 76°
2026-04-25 21:52 -19.45281 -44.23338 7157 ft 238 kts 76°
2026-04-25 21:52 -19.44899 -44.21646 6929 ft 235 kts 76°
2026-04-25 21:52 -19.44527 -44.19997 6900 ft 225 kts 76°
2026-04-25 21:53 -19.44167 -44.18402 6901 ft 223 kts 76°
2026-04-25 21:53 -19.43812 -44.16826 6905 ft 214 kts 77°
2026-04-25 21:53 -19.43871 -44.15357 6977 ft 190 kts 114°
2026-04-25 21:53 -19.44642 -44.14305 7100 ft 171 kts 135°
2026-04-25 21:54 -19.45494 -44.13454 6957 ft 175 kts 136°
2026-04-25 21:54 -19.46392 -44.12542 6727 ft 181 kts 136°
2026-04-25 21:54 -19.47361 -44.11602 6595 ft 200 kts 137°
2026-04-25 21:54 -19.48419 -44.10604 6368 ft 201 kts 138°
2026-04-25 21:55 -19.49445 -44.09652 6115 ft 192 kts 138°
2026-04-25 21:55 -19.50438 -44.08736 5847 ft 184 kts 139°
2026-04-25 21:55 -19.51084 -44.08142 5673 ft 181 kts 139°
2026-04-25 21:55 -19.52335 -44.06995 5372 ft 181 kts 139°
2026-04-25 21:56 -19.53291 -44.06118 5108 ft 182 kts 139°